| time (UTC) | temp F | wind direction | speed MPH | gust MPH | rain 1hr in | rain 24hr in | rain mn in | humidity % | barometer mb |
| 20260508023328 | 38 | 226 | 0.0 | 0.0 | 0.00 | 0.04 | 0.04 | 91 | 1015.6 |
| 20260508022825 | 38 | 226 | 0.0 | 0.0 | 0.00 | 0.04 | 0.04 | 92 | 1015.6 |
| 20260508022320 | 38 | 226 | 0.0 | 0.0 | 0.00 | 0.04 | 0.04 | 90 | 1015.6 |
| 20260508021818 | 39 | 226 | 0.0 | 0.0 | 0.00 | 0.04 | 0.04 | 89 | 1015.5 |
| 20260508021314 | 39 | 226 | 0.0 | 0.0 | 0.00 | 0.04 | 0.04 | 88 | 1015.4 |
| 20260508020810 | 40 | 226 | 0.0 | 0.0 | 0.00 | 0.04 | 0.04 | 87 | 1015.4 |
| 20260508020308 | 40 | 226 | 0.0 | 0.0 | 0.00 | 0.04 | 0.04 | 85 | 1015.3 |
| 20260508015804 | 41 | 226 | 0.0 | 0.0 | 0.00 | 0.04 | 0.04 | 85 | 1015.2 |
| 20260508015305 | 42 | 226 | 0.0 | 0.0 | 0.00 | 0.04 | 0.04 | 84 | 1015.1 |
| 20260508014759 | 42 | 226 | 0.0 | 1.0 | 0.00 | 0.04 | 0.04 | 83 | 1015.2 |
| 20260508014256 | 43 | 123 | 0.0 | 1.0 | 0.00 | 0.04 | 0.04 | 83 | 1015.2 |
| 20260508013751 | 43 | 300 | 0.0 | 1.0 | 0.00 | 0.04 | 0.04 | 81 | 1015.0 |
| 20260508013248 | 44 | 343 | 0.0 | 0.0 | 0.00 | 0.04 | 0.04 | 79 | 1014.9 |
| 20260508012745 | 44 | 343 | 0.0 | 0.0 | 0.00 | 0.04 | 0.04 | 75 | 1014.6 |
| 20260508012242 | 45 | 343 | 0.0 | 0.0 | 0.00 | 0.04 | 0.04 | 70 | 1014.6 |
| 20260508011740 | 47 | 343 | 0.0 | 0.0 | 0.00 | 0.04 | 0.04 | 68 | 1014.6 |
| 20260508011237 | 48 | 343 | 0.0 | 0.0 | 0.00 | 0.04 | 0.04 | 63 | 1014.3 |
| 20260508010734 | 49 | 308 | 0.0 | 0.0 | 0.00 | 0.04 | 0.04 | 59 | 1014.5 |
| 20260508010232 | 50 | 308 | 0.0 | 1.0 | 0.00 | 0.04 | 0.04 | 58 | 1014.5 |
| 20260508005729 | 51 | 14 | 0.0 | 1.0 | 0.00 | 0.04 | 0.04 | 54 | 1014.6 |
| 20260508005226 | 51 | 0 | 0.0 | 1.0 | 0.00 | 0.04 | 0.04 | 53 | 1014.3 |
| 20260508004721 | 51 | 315 | 1.0 | 3.0 | 0.00 | 0.04 | 0.04 | 52 | 1014.2 |
| 20260508004218 | 51 | 343 | 0.0 | 2.0 | 0.00 | 0.04 | 0.04 | 52 | 1014.2 |
| 20260508003714 | 52 | 20 | 1.0 | 3.0 | 0.00 | 0.04 | 0.04 | 52 | 1014.2 |
| 20260508003212 | 51 | 349 | 0.0 | 1.0 | 0.00 | 0.04 | 0.04 | 53 | 1014.1 |
| 20260508002708 | 50 | 26 | 1.0 | 2.0 | 0.00 | 0.04 | 0.04 | 57 | 1013.8 |
| 20260508002206 | 50 | 53 | 0.0 | 1.0 | 0.00 | 0.04 | 0.04 | 65 | 1013.8 |
| 20260508001701 | 52 | 309 | 0.0 | 1.0 | 0.00 | 0.04 | 0.04 | 62 | 1013.8 |
| 20260508001157 | 53 | 35 | 0.0 | 1.0 | 0.00 | 0.04 | 0.04 | 55 | 1013.6 |
| 20260508000654 | 53 | 324 | 1.0 | 2.0 | 0.00 | 0.04 | 0.04 | 56 | 1013.4 |
| 20260508000151 | 54 | 297 | 0.0 | 2.0 | 0.00 | 0.04 | 0.04 | 52 | 1013.3 |
| 20260507235647 | 54 | 297 | 0.0 | 2.0 | 0.00 | 0.04 | 0.04 | 52 | 1013.3 |
| 20260507235145 | 55 | 318 | 2.0 | 4.0 | 0.00 | 0.04 | 0.04 | 48 | 1013.4 |
| 20260507234642 | 55 | 297 | 1.0 | 3.0 | 0.00 | 0.04 | 0.04 | 47 | 1013.4 |
| 20260507234138 | 55 | 246 | 2.0 | 3.0 | 0.00 | 0.04 | 0.04 | 47 | 1013.2 |
| 20260507233635 | 56 | 304 | 4.0 | 4.0 | 0.00 | 0.04 | 0.04 | 47 | 1013.4 |
| 20260507233134 | 56 | 312 | 1.0 | 3.0 | 0.00 | 0.04 | 0.04 | 47 | 1013.3 |
| 20260507232629 | 56 | 293 | 4.0 | 6.0 | 0.00 | 0.04 | 0.04 | 46 | 1013.1 |
| 20260507232127 | 56 | 308 | 3.0 | 7.0 | 0.00 | 0.04 | 0.04 | 46 | 1013.3 |
| 20260507231623 | 57 | 314 | 2.0 | 7.0 | 0.00 | 0.04 | 0.04 | 46 | 1013.2 |
| 20260507231121 | 57 | 310 | 4.0 | 8.0 | 0.00 | 0.04 | 0.04 | 45 | 1013.0 |
| 20260507230617 | 57 | 335 | 4.0 | 7.0 | 0.00 | 0.04 | 0.04 | 44 | 1013.1 |
| 20260507230114 | 58 | 285 | 7.0 | 11.0 | 0.00 | 0.04 | 0.04 | 42 | 1013.1 |
| 20260507225609 | 58 | 268 | 6.0 | 9.0 | 0.00 | 0.04 | 0.04 | 45 | 1013.2 |
| 20260507225106 | 58 | 300 | 5.0 | 8.0 | 0.00 | 0.04 | 0.04 | 47 | 1013.1 |
| 20260507224601 | 58 | 298 | 4.0 | 9.0 | 0.00 | 0.04 | 0.04 | 45 | 1013.1 |
| 20260507224058 | 57 | 292 | 2.0 | 4.0 | 0.00 | 0.04 | 0.04 | 45 | 1013.0 |
| 20260507223554 | 57 | 302 | 4.0 | 7.0 | 0.00 | 0.04 | 0.04 | 46 | 1013.1 |
| 20260507223051 | 56 | 304 | 3.0 | 4.0 | 0.00 | 0.04 | 0.04 | 48 | 1013.1 |
| 20260507222548 | 57 | 277 | 1.0 | 6.0 | 0.00 | 0.04 | 0.04 | 47 | 1013.0 |
| 20260507222044 | 57 | 305 | 5.0 | 7.0 | 0.00 | 0.04 | 0.04 | 50 | 1012.9 |
| 20260507221541 | 58 | 330 | 4.0 | 6.0 | 0.00 | 0.04 | 0.04 | 49 | 1012.9 |
| 20260507221038 | 58 | 303 | 4.0 | 6.0 | 0.00 | 0.04 | 0.04 | 48 | 1012.7 |
| 20260507220535 | 58 | 291 | 5.0 | 6.0 | 0.00 | 0.04 | 0.04 | 48 | 1012.9 |
| 20260507220032 | 58 | 287 | 6.0 | 8.0 | 0.00 | 0.04 | 0.04 | 48 | 1012.7 |
| 20260507215528 | 58 | 322 | 5.0 | 9.0 | 0.00 | 0.04 | 0.04 | 48 | 1012.6 |
| 20260507215026 | 58 | 281 | 7.0 | 13.0 | 0.00 | 0.04 | 0.04 | 45 | 1012.7 |
| 20260507214523 | 58 | 311 | 4.0 | 7.0 | 0.00 | 0.04 | 0.04 | 47 | 1012.7 |
| 20260507214019 | 58 | 323 | 4.0 | 7.0 | 0.00 | 0.04 | 0.04 | 49 | 1012.4 |
| 20260507213515 | 58 | 72 | 6.0 | 10.0 | 0.00 | 0.04 | 0.04 | 46 | 1012.5 |
| 20260507213013 | 58 | 306 | 4.0 | 6.0 | 0.00 | 0.04 | 0.04 | 48 | 1012.4 |
| 20260507212508 | 59 | 303 | 6.0 | 8.0 | 0.00 | 0.04 | 0.04 | 49 | 1012.4 |
| 20260507212005 | 59 | 306 | 3.0 | 4.0 | 0.00 | 0.04 | 0.04 | 52 | 1012.4 |
| 20260507211502 | 58 | 307 | 2.0 | 7.0 | 0.00 | 0.04 | 0.04 | 49 | 1012.3 |
| 20260507210958 | 59 | 272 | 6.0 | 11.0 | 0.00 | 0.04 | 0.04 | 46 | 1012.1 |
| 20260507210455 | 58 | 313 | 4.0 | 8.0 | 0.00 | 0.04 | 0.04 | 46 | 1012.4 |
| 20260507205952 | 59 | 287 | 5.0 | 8.0 | 0.00 | 0.04 | 0.04 | 49 | 1012.3 |
| 20260507205449 | 58 | 14 | 0.0 | 8.0 | 0.00 | 0.04 | 0.04 | 51 | 1012.3 |
| 20260507204945 | 60 | 298 | 2.0 | 4.0 | 0.00 | 0.04 | 0.04 | 48 | 1012.1 |
| 20260507204442 | 60 | 315 | 4.0 | 6.0 | 0.00 | 0.04 | 0.04 | 48 | 1011.9 |
| 20260507203940 | 60 | 307 | 4.0 | 7.0 | 0.00 | 0.04 | 0.04 | 46 | 1011.9 |
| 20260507203437 | 60 | 252 | 4.0 | 7.0 | 0.00 | 0.04 | 0.04 | 49 | 1012.0 |
| 20260507202933 | 61 | 268 | 4.0 | 7.0 | 0.00 | 0.04 | 0.04 | 51 | 1012.1 |
| 20260507202430 | 60 | 306 | 2.0 | 7.0 | 0.00 | 0.04 | 0.04 | 47 | 1012.1 |
| 20260507201926 | 61 | 292 | 3.0 | 7.0 | 0.00 | 0.04 | 0.04 | 48 | 1012.1 |
| 20260507201421 | 62 | 356 | 2.0 | 9.0 | 0.00 | 0.04 | 0.04 | 47 | 1011.9 |
| 20260507200919 | 62 | 262 | 7.0 | 11.0 | 0.00 | 0.04 | 0.04 | 45 | 1012.0 |
| 20260507200414 | 61 | 301 | 2.0 | 7.0 | 0.00 | 0.04 | 0.04 | 46 | 1012.3 |
| 20260507195910 | 59 | 298 | 2.0 | 4.0 | 0.00 | 0.04 | 0.04 | 50 | 1012.5 |
| 20260507195408 | 60 | 330 | 4.0 | 6.0 | 0.00 | 0.04 | 0.04 | 55 | 1012.5 |
| 20260507194905 | 58 | 312 | 6.0 | 8.0 | 0.00 | 0.04 | 0.04 | 50 | 1012.8 |
| 20260507194401 | 58 | 310 | 3.0 | 4.0 | 0.00 | 0.04 | 0.04 | 50 | 1012.9 |
| 20260507193857 | 58 | 51 | 2.0 | 6.0 | 0.00 | 0.04 | 0.04 | 54 | 1012.7 |
| 20260507193355 | 59 | 316 | 5.0 | 8.0 | 0.00 | 0.04 | 0.04 | 49 | 1012.8 |
| 20260507192851 | 61 | 292 | 5.0 | 8.0 | 0.00 | 0.04 | 0.04 | 46 | 1012.7 |
| 20260507192347 | 59 | 295 | 3.0 | 14.0 | 0.00 | 0.04 | 0.04 | 50 | 1012.7 |
| 20260507191844 | 60 | 309 | 3.0 | 8.0 | 0.00 | 0.04 | 0.04 | 48 | 1012.8 |
| 20260507191340 | 61 | 35 | 2.0 | 4.0 | 0.00 | 0.04 | 0.04 | 49 | 1012.7 |
| 20260507190837 | 59 | 312 | 8.0 | 10.0 | 0.00 | 0.04 | 0.04 | 55 | 1012.9 |
| 20260507190335 | 58 | 325 | 1.0 | 3.0 | 0.00 | 0.04 | 0.04 | 52 | 1012.8 |
| 20260507185834 | 58 | 353 | 1.0 | 4.0 | 0.00 | 0.04 | 0.04 | 53 | 1012.8 |
| 20260507185330 | 58 | 50 | 1.0 | 7.0 | 0.00 | 0.04 | 0.04 | 53 | 1012.9 |
| 20260507184827 | 57 | 314 | 5.0 | 7.0 | 0.00 | 0.04 | 0.04 | 52 | 1012.8 |
| 20260507184326 | 60 | 245 | 3.0 | 9.0 | 0.00 | 0.04 | 0.04 | 50 | 1013.0 |
| 20260507183822 | 60 | 309 | 4.0 | 10.0 | 0.00 | 0.04 | 0.04 | 54 | 1013.0 |
| 20260507183319 | 58 | 221 | 0.0 | 3.0 | 0.00 | 0.04 | 0.04 | 56 | 1013.1 |
| 20260507182817 | 57 | 307 | 4.0 | 8.0 | 0.00 | 0.04 | 0.04 | 54 | 1013.1 |
| 20260507182312 | 58 | 262 | 4.0 | 6.0 | 0.00 | 0.04 | 0.04 | 54 | 1013.3 |
| 20260507181809 | 60 | 308 | 6.0 | 7.0 | 0.00 | 0.04 | 0.04 | 54 | 1013.2 |
| 20260507181304 | 58 | 44 | 4.0 | 4.0 | 0.00 | 0.04 | 0.04 | 52 | 1013.2 |
| 20260507180801 | 56 | 305 | 3.0 | 7.0 | 0.00 | 0.04 | 0.04 | 53 | 1013.0 |
| 20260507180258 | 56 | 297 | 3.0 | 7.0 | 0.00 | 0.04 | 0.04 | 53 | 1013.2 |
| 20260507175754 | 57 | 283 | 3.0 | 7.0 | 0.00 | 0.04 | 0.04 | 51 | 1013.1 |
| 20260507175251 | 58 | 294 | 5.0 | 8.0 | 0.00 | 0.04 | 0.04 | 53 | 1013.2 |
| 20260507174748 | 58 | 333 | 5.0 | 7.0 | 0.00 | 0.04 | 0.04 | 55 | 1013.3 |
| 20260507174246 | 59 | 249 | 6.0 | 8.0 | 0.00 | 0.04 | 0.04 | 54 | 1013.2 |
| 20260507173744 | 60 | 250 | 4.0 | 8.0 | 0.00 | 0.04 | 0.04 | 56 | 1013.2 |
| 20260507173241 | 60 | 280 | 4.0 | 7.0 | 0.00 | 0.04 | 0.04 | 60 | 1013.3 |
| 20260507172737 | 59 | 273 | 5.0 | 8.0 | 0.00 | 0.04 | 0.04 | 57 | 1013.4 |
| 20260507172234 | 59 | 309 | 2.0 | 8.0 | 0.00 | 0.04 | 0.04 | 54 | 1013.5 |
| 20260507171734 | 59 | 303 | 4.0 | 7.0 | 0.00 | 0.04 | 0.04 | 53 | 1013.6 |
| 20260507171232 | 59 | 298 | 2.0 | 7.0 | 0.00 | 0.04 | 0.04 | 57 | 1013.4 |
| 20260507170728 | 58 | 225 | 2.0 | 3.0 | 0.00 | 0.04 | 0.04 | 60 | 1013.7 |
| 20260507170225 | 58 | 281 | 3.0 | 7.0 | 0.00 | 0.04 | 0.04 | 53 | 1013.7 |
| 20260507165721 | 58 | 301 | 4.0 | 4.0 | 0.00 | 0.04 | 0.04 | 53 | 1013.8 |
| 20260507165217 | 57 | 335 | 3.0 | 3.0 | 0.00 | 0.04 | 0.04 | 55 | 1014.0 |
| 20260507164713 | 58 | 43 | 2.0 | 3.0 | 0.00 | 0.04 | 0.04 | 54 | 1014.0 |
| 20260507164211 | 55 | 44 | 0.0 | 2.0 | 0.00 | 0.04 | 0.04 | 63 | 1014.0 |
| 20260507163708 | 57 | 41 | 2.0 | 4.0 | 0.00 | 0.04 | 0.04 | 61 | 1014.1 |
| 20260507163206 | 56 | 300 | 2.0 | 2.0 | 0.00 | 0.04 | 0.04 | 60 | 1014.1 |
| 20260507162702 | 56 | 275 | 3.0 | 9.0 | 0.00 | 0.04 | 0.04 | 63 | 1014.3 |
| 20260507162158 | 56 | 303 | 3.0 | 4.0 | 0.00 | 0.04 | 0.04 | 63 | 1014.1 |
| 20260507161654 | 56 | 271 | 1.0 | 4.0 | 0.00 | 0.04 | 0.04 | 65 | 1014.2 |
| 20260507161150 | 56 | 300 | 4.0 | 6.0 | 0.00 | 0.04 | 0.04 | 59 | 1014.3 |
| 20260507160647 | 56 | 259 | 3.0 | 4.0 | 0.00 | 0.04 | 0.04 | 62 | 1014.3 |
| 20260507160144 | 55 | 272 | 1.0 | 3.0 | 0.00 | 0.04 | 0.04 | 62 | 1014.6 |
| 20260507155639 | 56 | 61 | 1.0 | 9.0 | 0.00 | 0.04 | 0.04 | 68 | 1014.5 |
| 20260507155136 | 56 | 287 | 4.0 | 7.0 | 0.00 | 0.04 | 0.04 | 63 | 1014.7 |
| 20260507154633 | 57 | 278 | 6.0 | 9.0 | 0.00 | 0.04 | 0.04 | 64 | 1014.6 |
| 20260507154131 | 57 | 266 | 4.0 | 7.0 | 0.00 | 0.04 | 0.04 | 65 | 1014.3 |
| 20260507153626 | 56 | 261 | 0.0 | 2.0 | 0.00 | 0.04 | 0.04 | 64 | 1014.2 |
| 20260507153123 | 56 | 288 | 2.0 | 7.0 | 0.00 | 0.04 | 0.04 | 61 | 1014.3 |
| 20260507152620 | 55 | 32 | 2.0 | 3.0 | 0.00 | 0.04 | 0.04 | 64 | 1014.5 |
| 20260507152116 | 55 | 308 | 2.0 | 4.0 | 0.00 | 0.04 | 0.04 | 67 | 1014.5 |
| 20260507151612 | 56 | 276 | 0.0 | 2.0 | 0.00 | 0.04 | 0.04 | 71 | 1014.5 |
| 20260507151109 | 55 | 306 | 3.0 | 4.0 | 0.00 | 0.04 | 0.04 | 67 | 1014.8 |
| 20260507150606 | 56 | 333 | 0.0 | 4.0 | 0.00 | 0.04 | 0.04 | 67 | 1014.7 |
| 20260507145557 | 54 | 307 | 4.0 | 4.0 | 0.00 | 0.04 | 0.04 | 70 | 1014.8 |
| 20260507145056 | 54 | 242 | 1.0 | 2.0 | 0.00 | 0.04 | 0.04 | 68 | 1015.0 |
| 20260507144552 | 54 | 298 | 2.0 | 3.0 | 0.00 | 0.04 | 0.04 | 71 | 1014.9 |
| 20260507144050 | 56 | 297 | 1.0 | 3.0 | 0.00 | 0.04 | 0.04 | 72 | 1015.1 |
| 20260507143546 | 54 | 139 | 0.0 | 1.0 | 0.00 | 0.04 | 0.04 | 72 | 1015.2 |
| 20260507143044 | 52 | 18 | 0.0 | 3.0 | 0.00 | 0.04 | 0.04 | 68 | 1015.2 |
| 20260507142539 | 51 | 305 | 0.0 | 2.0 | 0.00 | 0.04 | 0.04 | 79 | 1015.4 |
| 20260507142036 | 51 | 259 | 2.0 | 4.0 | 0.00 | 0.04 | 0.04 | 81 | 1015.4 |
| 20260507141532 | 53 | 234 | 0.0 | 3.0 | 0.00 | 0.04 | 0.04 | 81 | 1015.5 |
| 20260507141029 | 52 | 94 | 0.0 | 3.0 | 0.00 | 0.04 | 0.04 | 87 | 1015.5 |
| 20260507140526 | 51 | 4 | 0.0 | 1.0 | 0.00 | 0.04 | 0.04 | 86 | 1015.6 |
| 20260507140023 | 50 | 10 | 1.0 | 1.0 | 0.00 | 0.04 | 0.04 | 90 | 1015.7 |
| 20260507135520 | 50 | 296 | 1.0 | 1.0 | 0.00 | 0.04 | 0.04 | 90 | 1015.6 |
| 20260507135017 | 50 | 87 | 0.0 | 0.0 | 0.00 | 0.04 | 0.04 | 89 | 1015.8 |
| 20260507134514 | 50 | 216 | 0.0 | 0.0 | 0.00 | 0.04 | 0.04 | 91 | 1015.8 |
| 20260507134009 | 50 | 220 | 0.0 | 0.0 | 0.00 | 0.04 | 0.04 | 89 | 1015.9 |
| 20260507133506 | 50 | 37 | 1.0 | 1.0 | 0.00 | 0.04 | 0.04 | 91 | 1016.0 |
| 20260507133004 | 49 | 147 | 0.0 | 1.0 | 0.00 | 0.04 | 0.04 | 93 | 1015.8 |
| 20260507132500 | 49 | 190 | 0.0 | 0.0 | 0.00 | 0.04 | 0.04 | 91 | 1015.9 |
| 20260507131956 | 49 | 195 | 0.0 | 1.0 | 0.00 | 0.04 | 0.04 | 92 | 1015.9 |
| 20260507131454 | 49 | 240 | 0.0 | 0.0 | 0.00 | 0.04 | 0.04 | 93 | 1016.0 |
| 20260507130950 | 48 | 2 | 0.0 | 0.0 | 0.00 | 0.04 | 0.04 | 93 | 1015.9 |
| 20260507130447 | 48 | 58 | 1.0 | 1.0 | 0.00 | 0.04 | 0.04 | 93 | 1015.9 |
| 20260507125946 | 48 | 270 | 0.0 | 0.0 | 0.00 | 0.04 | 0.04 | 95 | 1015.9 |
| 20260507125444 | 47 | 163 | 0.0 | 1.0 | 0.00 | 0.04 | 0.04 | 94 | 1015.9 |
| 20260507124941 | 47 | 149 | 0.0 | 1.0 | 0.00 | 0.04 | 0.04 | 95 | 1015.9 |
| 20260507124437 | 47 | 162 | 0.0 | 1.0 | 0.00 | 0.04 | 0.04 | 96 | 1016.0 |
| 20260507123936 | 47 | 123 | 0.0 | 0.0 | 0.00 | 0.04 | 0.04 | 95 | 1016.0 |
| 20260507123433 | 47 | 13 | 0.0 | 0.0 | 0.00 | 0.04 | 0.04 | 97 | 1016.1 |
| 20260507122929 | 47 | 319 | 0.0 | 0.0 | 0.00 | 0.04 | 0.04 | 98 | 1016.1 |
| 20260507122424 | 47 | 348 | 0.0 | 0.0 | 0.00 | 0.04 | 0.04 | 99 | 1016.0 |
| 20260507121921 | 46 | 308 | 0.0 | 0.0 | 0.00 | 0.04 | 0.04 | 99 | 1016.0 |
| 20260507121416 | 46 | 307 | 0.0 | 0.0 | 0.00 | 0.04 | 0.04 | 99 | 1016.1 |
| 20260507120913 | 46 | 343 | 0.0 | 0.0 | 0.00 | 0.04 | 0.04 | 99 | 1016.0 |
| 20260507120409 | 46 | 24 | 0.0 | 0.0 | 0.00 | 0.04 | 0.04 | 99 | 1016.1 |
| 20260507115906 | 46 | 29 | 0.0 | 0.0 | 0.00 | 0.04 | 0.04 | 99 | 1015.8 |
| 20260507115402 | 46 | 29 | 0.0 | 0.0 | 0.00 | 0.04 | 0.04 | 99 | 1015.7 |
| 20260507114857 | 46 | 30 | 0.0 | 0.0 | 0.00 | 0.04 | 0.04 | 99 | 1015.8 |
| 20260507114354 | 46 | 35 | 0.0 | 0.0 | 0.00 | 0.04 | 0.04 | 99 | 1015.6 |
| 20260507113852 | 46 | 43 | 0.0 | 0.0 | 0.00 | 0.04 | 0.04 | 99 | 1015.7 |
| 20260507113349 | 46 | 50 | 0.0 | 0.0 | 0.00 | 0.04 | 0.04 | 99 | 1015.5 |
| 20260507112846 | 46 | 18 | 0.0 | 0.0 | 0.00 | 0.04 | 0.04 | 99 | 1015.5 |
| 20260507112343 | 46 | 9 | 0.0 | 0.0 | 0.00 | 0.04 | 0.04 | 99 | 1015.4 |
| 20260507111841 | 46 | 345 | 0.0 | 0.0 | 0.00 | 0.04 | 0.04 | 99 | 1015.3 |
| 20260507111338 | 46 | 25 | 0.0 | 0.0 | 0.00 | 0.04 | 0.04 | 99 | 1015.2 |
| 20260507110833 | 46 | 26 | 0.0 | 0.0 | 0.00 | 0.04 | 0.04 | 99 | 1015.0 |
| 20260507110330 | 46 | 31 | 0.0 | 0.0 | 0.00 | 0.04 | 0.04 | 99 | 1015.3 |
| 20260507105827 | 46 | 32 | 0.0 | 0.0 | 0.00 | 0.04 | 0.04 | 99 | 1015.1 |
| 20260507105323 | 46 | 32 | 0.0 | 0.0 | 0.00 | 0.04 | 0.04 | 99 | 1015.2 |
| 20260507104820 | 46 | 32 | 0.0 | 0.0 | 0.00 | 0.04 | 0.04 | 99 | 1015.2 |
| 20260507104317 | 47 | 34 | 0.0 | 0.0 | 0.00 | 0.04 | 0.04 | 99 | 1015.0 |
| 20260507103813 | 47 | 56 | 0.0 | 0.0 | 0.00 | 0.04 | 0.04 | 99 | 1015.3 |
| 20260507103309 | 46 | 82 | 0.0 | 0.0 | 0.00 | 0.04 | 0.04 | 99 | 1015.1 |
| 20260507102806 | 46 | 115 | 0.0 | 0.0 | 0.00 | 0.04 | 0.04 | 99 | 1014.9 |
| 20260507102306 | 46 | 115 | 0.0 | 0.0 | 0.00 | 0.04 | 0.04 | 99 | 1015.0 |
| 20260507101759 | 46 | 115 | 0.0 | 0.0 | 0.00 | 0.04 | 0.04 | 99 | 1015.0 |
| 20260507101254 | 47 | 115 | 0.0 | 0.0 | 0.00 | 0.04 | 0.04 | 99 | 1014.7 |
| 20260507100751 | 47 | 44 | 0.0 | 0.0 | 0.00 | 0.04 | 0.04 | 99 | 1014.9 |
| 20260507100250 | 47 | 108 | 0.0 | 0.0 | 0.00 | 0.04 | 0.04 | 99 | 1014.8 |
| 20260507095747 | 47 | 124 | 0.0 | 0.0 | 0.00 | 0.04 | 0.04 | 99 | 1014.9 |
| 20260507095243 | 47 | 124 | 0.0 | 0.0 | 0.00 | 0.04 | 0.04 | 99 | 1014.6 |
| 20260507094740 | 47 | 139 | 0.0 | 0.0 | 0.00 | 0.04 | 0.04 | 99 | 1014.7 |
| 20260507094237 | 47 | 175 | 0.0 | 0.0 | 0.00 | 0.04 | 0.04 | 99 | 1014.7 |
| 20260507093734 | 46 | 173 | 0.0 | 0.0 | 0.00 | 0.04 | 0.04 | 99 | 1014.5 |
| 20260507093232 | 46 | 148 | 0.0 | 2.0 | 0.00 | 0.04 | 0.04 | 99 | 1014.8 |
| 20260507092730 | 46 | 108 | 1.0 | 1.0 | 0.00 | 0.04 | 0.04 | 99 | 1014.6 |
| 20260507092226 | 47 | 106 | 0.0 | 1.0 | 0.00 | 0.04 | 0.04 | 99 | 1014.6 |
| 20260507091723 | 47 | 129 | 0.0 | 0.0 | 0.00 | 0.04 | 0.04 | 99 | 1014.6 |
| 20260507091219 | 47 | 126 | 0.0 | 0.0 | 0.00 | 0.04 | 0.04 | 99 | 1014.7 |
| 20260507090719 | 47 | 131 | 0.0 | 0.0 | 0.00 | 0.04 | 0.04 | 99 | 1014.7 |
| 20260507090216 | 47 | 152 | 0.0 | 0.0 | 0.00 | 0.04 | 0.04 | 99 | 1014.7 |
| 20260507085713 | 47 | 181 | 0.0 | 0.0 | 0.00 | 0.04 | 0.04 | 99 | 1014.7 |
| 20260507085210 | 47 | 101 | 0.0 | 0.0 | 0.00 | 0.04 | 0.04 | 99 | 1014.6 |
| 20260507084707 | 46 | 356 | 0.0 | 0.0 | 0.00 | 0.04 | 0.04 | 99 | 1014.5 |
| 20260507084203 | 46 | 356 | 0.0 | 0.0 | 0.00 | 0.04 | 0.04 | 99 | 1014.5 |
| 20260507083701 | 47 | 356 | 0.0 | 0.0 | 0.00 | 0.04 | 0.04 | 99 | 1014.6 |
| 20260507083157 | 47 | 350 | 0.0 | 0.0 | 0.07 | 0.04 | 0.04 | 99 | 1014.7 |
| 20260507082653 | 47 | 350 | 1.0 | 1.0 | 0.07 | 0.04 | 0.04 | 99 | 1014.7 |
| 20260507082149 | 47 | 352 | 1.0 | 2.0 | 0.00 | 0.03 | 0.03 | 99 | 1014.8 |
| 20260507081647 | 47 | 12 | 0.0 | 0.0 | 0.05 | 0.03 | 0.03 | 99 | 1014.8 |
| 20260507081143 | 47 | 319 | 0.0 | 2.0 | 0.00 | 0.02 | 0.02 | 99 | 1015.0 |
| 20260507080639 | 47 | 303 | 0.0 | 1.0 | 0.00 | 0.02 | 0.02 | 99 | 1014.9 |
| 20260507080137 | 47 | 298 | 0.0 | 1.0 | 0.00 | 0.02 | 0.02 | 99 | 1015.0 |
| 20260507075637 | 48 | 289 | 0.0 | 2.0 | 0.00 | 0.02 | 0.02 | 99 | 1015.0 |
| 20260507075133 | 48 | 295 | 0.0 | 0.0 | 0.00 | 0.02 | 0.02 | 99 | 1014.8 |
| 20260507074630 | 48 | 292 | 1.0 | 1.0 | 0.00 | 0.02 | 0.02 | 99 | 1014.7 |
| 20260507074128 | 48 | 297 | 0.0 | 2.0 | 0.07 | 0.02 | 0.02 | 99 | 1014.9 |
| 20260507073624 | 48 | 300 | 3.0 | 3.0 | 0.07 | 0.02 | 0.02 | 99 | 1014.6 |
| 20260507073121 | 48 | 286 | 1.0 | 3.0 | 0.00 | 0.01 | 0.01 | 99 | 1014.7 |
| 20260507072619 | 48 | 295 | 1.0 | 2.0 | 0.00 | 0.01 | 0.01 | 99 | 1014.5 |
| 20260507072115 | 48 | 271 | 0.0 | 1.0 | 0.00 | 0.01 | 0.01 | 99 | 1014.5 |
| 20260507071613 | 48 | 224 | 0.0 | 0.0 | 0.00 | 0.01 | 0.01 | 99 | 1014.6 |
| 20260507071109 | 48 | 206 | 0.0 | 0.0 | 0.00 | 0.01 | 0.01 | 99 | 1014.7 |
| 20260507070607 | 48 | 223 | 0.0 | 0.0 | 0.00 | 0.01 | 0.01 | 99 | 1014.7 |
| 20260507070104 | 48 | 243 | 0.0 | 0.0 | 0.00 | 0.01 | 0.01 | 99 | 1014.3 |
| 20260507065600 | 48 | 213 | 0.0 | 0.0 | 0.00 | 0.01 | 0.01 | 99 | 1014.7 |
| 20260507065057 | 48 | 211 | 0.0 | 0.0 | 0.00 | 0.01 | 0.01 | 99 | 1014.6 |
| 20260507064555 | 48 | 160 | 0.0 | 0.0 | 0.00 | 0.01 | 0.01 | 99 | 1014.6 |
| 20260507064053 | 48 | 201 | 0.0 | 0.0 | 0.00 | 0.01 | 0.01 | 99 | 1014.5 |
| 20260507063550 | 48 | 153 | 0.0 | 0.0 | 0.00 | 0.01 | 0.01 | 99 | 1014.5 |
| 20260507063047 | 48 | 155 | 0.0 | 0.0 | 0.00 | 0.01 | 0.01 | 99 | 1014.6 |
| 20260507062544 | 48 | 152 | 0.0 | 1.0 | 0.00 | 0.01 | 0.01 | 99 | 1014.6 |
| 20260507062041 | 48 | 132 | 0.0 | 0.0 | 0.00 | 0.01 | 0.01 | 99 | 1014.7 |
| 20260507061539 | 48 | 136 | 0.0 | 0.0 | 0.00 | 0.01 | 0.01 | 99 | 1014.7 |
| 20260507061037 | 48 | 148 | 1.0 | 1.0 | 0.00 | 0.01 | 0.01 | 99 | 1014.7 |
| 20260507060534 | 48 | 156 | 0.0 | 2.0 | 0.05 | 0.01 | 0.01 | 99 | 1015.0 |
| 20260507060031 | 48 | 166 | 1.0 | 2.0 | 0.05 | 0.01 | 0.01 | 99 | 1015.1 |
| 20260507055525 | 48 | 176 | 0.0 | 0.0 | 0.00 | 0.00 | 0.00 | 99 | 1015.1 |
| 20260507055022 | 48 | 150 | 0.0 | 0.0 | 0.00 | 0.00 | 0.00 | 99 | 1015.0 |
| 20260507054518 | 48 | 128 | 0.0 | 0.0 | 0.00 | 0.00 | 0.00 | 99 | 1015.2 |
| 20260507054015 | 48 | 125 | 0.0 | 0.0 | 0.00 | 0.00 | 0.00 | 99 | 1015.2 |
| 20260507053513 | 48 | 125 | 0.0 | 0.0 | 0.00 | 0.00 | 0.00 | 99 | 1015.2 |
| 20260507053012 | 48 | 116 | 0.0 | 0.0 | 0.00 | 0.00 | 0.00 | 99 | 1015.2 |
| 20260507052509 | 48 | 117 | 0.0 | 0.0 | 0.00 | 0.00 | 0.00 | 99 | 1015.3 |
| 20260507052005 | 48 | 141 | 0.0 | 0.0 | 0.00 | 0.00 | 0.00 | 99 | 1015.3 |
| 20260507051503 | 48 | 166 | 0.0 | 0.0 | 0.00 | 0.00 | 0.00 | 99 | 1015.3 |
| 20260507050959 | 48 | 185 | 0.0 | 0.0 | 0.00 | 0.00 | 0.00 | 99 | 1015.3 |
| 20260507050456 | 48 | 185 | 0.0 | 0.0 | 0.00 | 0.00 | 0.00 | 99 | 1015.3 |
| 20260507045953 | 48 | 204 | 0.0 | 0.0 | 0.00 | 0.00 | 0.00 | 99 | 1015.5 |
| 20260507045449 | 48 | 189 | 0.0 | 1.0 | 0.00 | 0.00 | 0.00 | 99 | 1015.3 |
| 20260507044947 | 48 | 132 | 0.0 | 0.0 | 0.00 | 0.00 | 0.00 | 99 | 1015.2 |
| 20260507044443 | 48 | 168 | 0.0 | 0.0 | 0.00 | 0.00 | 0.00 | 99 | 1015.3 |
| 20260507043939 | 48 | 168 | 1.0 | 2.0 | 0.00 | 0.00 | 0.00 | 99 | 1015.4 |
| 20260507043436 | 48 | 180 | 0.0 | 1.0 | 0.00 | 0.00 | 0.00 | 99 | 1015.2 |
| 20260507042932 | 48 | 129 | 1.0 | 2.0 | 0.00 | 0.00 | 0.00 | 99 | 1015.2 |
| 20260507042429 | 48 | 122 | 1.0 | 1.0 | 0.00 | 0.00 | 0.00 | 99 | 1014.9 |
| 20260507041925 | 48 | 122 | 0.0 | 0.0 | 0.00 | 0.00 | 0.00 | 99 | 1015.1 |
| 20260507041422 | 48 | 135 | 0.0 | 1.0 | 0.00 | 0.00 | 0.00 | 99 | 1015.1 |
| 20260507040919 | 48 | 130 | 0.0 | 0.0 | 0.00 | 0.00 | 0.00 | 99 | 1015.2 |
| 20260507040415 | 48 | 130 | 0.0 | 0.0 | 0.00 | 0.52 | 0.52 | 99 | 1015.3 |
| 20260507035911 | 48 | 151 | 0.0 | 0.0 | 0.00 | 0.52 | 0.52 | 99 | 1015.2 |
| 20260507035407 | 49 | 102 | 0.0 | 0.0 | 0.00 | 0.52 | 0.52 | 99 | 1015.2 |
| 20260507034904 | 49 | 98 | 0.0 | 0.0 | 0.00 | 0.52 | 0.52 | 99 | 1015.1 |
| 20260507034401 | 49 | 98 | 0.0 | 0.0 | 0.07 | 0.52 | 0.52 | 99 | 1015.4 |
| 20260507033859 | 49 | 102 | 0.0 | 0.0 | 0.07 | 0.52 | 0.52 | 99 | 1015.0 |
| 20260507033357 | 49 | 102 | 0.0 | 0.0 | 0.00 | 0.51 | 0.51 | 99 | 1015.0 |
| 20260507032853 | 49 | 102 | 0.0 | 0.0 | 0.00 | 0.51 | 0.51 | 99 | 1015.1 |
| 20260507032350 | 49 | 138 | 0.0 | 0.0 | 0.00 | 0.51 | 0.51 | 99 | 1015.2 |
| 20260507031846 | 49 | 51 | 0.0 | 0.0 | 0.00 | 0.51 | 0.51 | 99 | 1015.6 |
| 20260507031343 | 49 | 130 | 1.0 | 1.0 | 0.00 | 0.51 | 0.51 | 99 | 1015.3 |
| 20260507030840 | 49 | 117 | 0.0 | 0.0 | 0.00 | 0.51 | 0.51 | 99 | 1015.4 |
| 20260507030338 | 49 | 164 | 0.0 | 1.0 | 0.00 | 0.51 | 0.51 | 99 | 1015.5 |
| 20260507025834 | 49 | 47 | 0.0 | 0.0 | 0.00 | 0.51 | 0.51 | 99 | 1015.9 |
| 20260507025332 | 49 | 18 | 0.0 | 1.0 | 0.05 | 0.51 | 0.51 | 99 | 1015.5 |
| 20260507024829 | 49 | 15 | 0.0 | 0.0 | 0.05 | 0.51 | 0.51 | 99 | 1014.8 |
| 20260507024326 | 49 | 93 | 0.0 | 1.0 | 0.00 | 0.50 | 0.50 | 99 | 1014.7 |
| 20260507023822 | 49 | 344 | 0.0 | 0.0 | 0.00 | 0.50 | 0.50 | 99 | 1014.9 |